Change the Weather History Date:

Sunday, March 24, 2013

  Actual Average Record
Temperature  
Mean Temperature 30 °F -  
Max Temperature 35 °F 57 °F 81 °F (1967)
Min Temperature 21 °F 36 °F 14 °F (1974)
Degree Days  
Heating Degree Days 36    
Moisture  
Dew Point 27 °F    
Average Humidity 83    
Maximum Humidity 93    
Minimum Humidity 61    
Precipitation  
Precipitation 0.01 in - - ()
Sea Level Pressure  
Sea Level Pressure 29.93 in    
Wind  
Wind Speed 13 mph (NNW)    
Max Wind Speed 24 mph    
Max Gust Speed 38 mph    
Visibility 4 miles    
Events Fog , Rain , Snow    
Averages and records for this station are not official NWS values.
T = Trace of Precipitation, MM = Missing Value Source: NWS Daily Summary

Daily Weather History Graph

Daily Weather History Graph

Search for Another Location

Airport or City:

Trip Planner

Search our weather history database for the weather conditions in past years. The results will help you decide how hot, cold, wet, or windy it might be!

Date:

Astronomy

Mar. 24, 2013 Rise Set
Actual Time 7:19 AM CDT 7:37 PM CDT
Civil Twilight 6:53 AM CDT 8:03 PM CDT
Nautical Twilight 6:22 AM CDT 8:34 PM CDT
Astronomical Twilight 5:51 AM CDT 9:05 PM CDT
Moon 5:09 PM CDT (3/24) 5:26 AM CDT (3/24)
Length of Visible Light 13h 10m
Length of Day
12h 18m
Waxing Gibbous, 92% of the Moon is Illuminated
Mar 24
Waxing Gibbous
Mar 27
Full
Apr 2
Last Quarter
Apr 10
New
Apr 18
First Quarter

Hourly Weather History & Observations

Time (CDT) Temp. Windchill Dew Point Humidity Pressure Visibility Wind Dir Wind Speed Gust Speed Precip Events Conditions
12:05 AM 35.6 °F 29.9 °F 33.8 °F 93% 29.81 in 2.0 mi NNE 6.9 mph - 0.00 in Snow Light Snow
12:26 AM 35.6 °F 30.7 °F 33.8 °F 93% 29.83 in 3.0 mi Variable 5.8 mph - 0.00 in   Overcast
12:40 AM 35.6 °F 31.7 °F 33.8 °F 93% 29.83 in 2.5 mi NNE 4.6 mph - 0.00 in   Overcast
12:52 AM 36.0 °F 31.1 °F 34.0 °F 93% 29.82 in 2.5 mi NNE 5.8 mph - 0.00 in Snow Light Snow
1:29 AM 35.6 °F 30.7 °F 33.8 °F 93% 29.78 in 3.0 mi NNE 5.8 mph - 0.00 in Snow Light Snow
1:52 AM 35.1 °F 30.1 °F 33.1 °F 92% 29.77 in 6.0 mi NE 5.8 mph - 0.00 in Rain Light Rain
2:38 AM 33.8 °F 27.0 °F 30.2 °F 87% 29.79 in 1.8 mi WNW 8.1 mph - 0.00 in Snow Light Snow
2:44 AM 33.8 °F 26.4 °F 30.2 °F 87% 29.80 in 1.0 mi WNW 9.2 mph - 0.00 in Snow Light Snow
2:52 AM 33.1 °F 24.9 °F 30.9 °F 92% 29.81 in 0.8 mi NW 10.4 mph - 0.00 in Snow Light Snow
3:52 AM 33.1 °F 21.9 °F 30.9 °F 92% 29.79 in 0.8 mi NNW 18.4 mph 25.3 mph 0.00 in Snow Light Snow
4:18 AM 32.0 °F 20.1 °F 30.2 °F 93% 29.76 in 1.0 mi NNW 19.6 mph 26.5 mph 0.00 in Snow Light Snow
4:36 AM 32.0 °F 20.5 °F 28.4 °F 87% 29.76 in 1.2 mi NNW 18.4 mph 28.8 mph 0.00 in Snow Light Snow
4:52 AM 32.0 °F 20.1 °F 28.9 °F 88% 29.79 in 1.2 mi NNW 19.6 mph 27.6 mph 0.00 in Snow Light Snow
5:00 AM 30.2 °F 18.5 °F 28.4 °F 93% 29.77 in 0.8 mi NNW 17.3 mph 26.5 mph 0.00 in Snow Light Snow
7:13 AM 30.2 °F 16.5 °F 26.6 °F 86% 29.83 in 0.8 mi NNW 24.2 mph 35.7 mph 0.00 in Snow Light Snow
7:52 AM 30.0 °F 16.6 °F 27.0 °F 88% 29.87 in 0.2 mi NNW 23.0 mph 35.7 mph 0.00 in Fog , Snow Snow
8:24 AM 30.2 °F 16.8 °F 26.6 °F 86% 29.87 in 0.8 mi NNW 23.0 mph 32.2 mph 0.00 in Snow Light Snow
8:30 AM 30.2 °F 17.1 °F 26.6 °F 86% 29.88 in 1.0 mi NNW 21.9 mph 31.1 mph 0.00 in Snow Light Snow
8:52 AM 30.0 °F 16.3 °F 27.0 °F 88% 29.91 in 1.0 mi NNW 24.2 mph 34.5 mph 0.00 in Snow Light Snow
8:58 AM 30.2 °F 16.5 °F 26.6 °F 86% 29.90 in 1.2 mi NNW 24.2 mph 32.2 mph 0.00 in Snow Light Snow
9:06 AM 30.2 °F 16.5 °F 26.6 °F 86% 29.91 in 1.5 mi NNW 24.2 mph 32.2 mph 0.00 in Snow Light Snow
9:16 AM 30.2 °F 16.5 °F 26.6 °F 86% 29.91 in 2.5 mi NNW 24.2 mph 38.0 mph 0.00 in Snow Light Snow
9:30 AM 30.2 °F 17.4 °F 26.6 °F 86% 29.92 in 2.0 mi NNW 20.7 mph 29.9 mph 0.00 in Snow Light Snow
9:38 AM 30.2 °F 16.8 °F 26.6 °F 86% 29.93 in 1.2 mi NNW 23.0 mph 32.2 mph 0.00 in Snow Light Snow
9:52 AM 30.0 °F 17.2 °F 27.0 °F 88% 29.96 in 1.0 mi NNW 20.7 mph 31.1 mph 0.00 in Snow Light Snow
9:59 AM 30.2 °F 17.1 °F 26.6 °F 86% 29.94 in 1.2 mi NNW 21.9 mph 31.1 mph 0.00 in Snow Light Snow
10:01 AM 30.2 °F 17.8 °F 26.6 °F 86% 29.94 in 1.5 mi NNW 19.6 mph 31.1 mph 0.00 in Snow Light Snow
10:06 AM 30.2 °F 17.1 °F 26.6 °F 86% 29.95 in 2.0 mi NNW 21.9 mph 31.1 mph 0.00 in Snow Light Snow
10:19 AM 30.2 °F 17.1 °F 26.6 °F 86% 29.95 in 4.0 mi NNW 21.9 mph 28.8 mph 0.00 in   Overcast
10:52 AM 30.9 °F 18.4 °F 26.1 °F 82% 29.99 in 7.0 mi NNW 20.7 mph 27.6 mph 0.01 in   Overcast
12:52 PM 32.0 °F 20.5 °F 25.0 °F 75% 30.04 in 10.0 mi NNW 18.4 mph 31.1 mph N/A   Overcast
1:52 PM 32.0 °F 20.5 °F 24.1 °F 73% 30.06 in 10.0 mi NW 18.4 mph 35.7 mph N/A   Overcast
2:52 PM 32.0 °F 20.1 °F 24.1 °F 73% 30.07 in 9.0 mi NW 19.6 mph 28.8 mph N/A   Overcast
3:52 PM 32.0 °F 20.5 °F 23.0 °F 69% 30.08 in 10.0 mi NW 18.4 mph 24.2 mph N/A   Overcast
4:52 PM 32.0 °F 20.5 °F 21.9 °F 66% 30.08 in 10.0 mi NNW 18.4 mph 25.3 mph N/A   Overcast
5:24 PM 32.0 °F 20.1 °F 21.2 °F 64% 30.06 in 10.0 mi NW 19.6 mph 28.8 mph N/A   Scattered Clouds
5:52 PM 33.1 °F 22.2 °F 21.0 °F 61% 30.09 in 10.0 mi NW 17.3 mph 26.5 mph N/A   Clear
6:52 PM 32.0 °F 22.1 °F 21.0 °F 64% 30.11 in 10.0 mi NW 13.8 mph 20.7 mph N/A   Clear
7:52 PM 30.0 °F 21.7 °F 19.9 °F 66% 30.13 in 10.0 mi WNW 9.2 mph - N/A   Clear
8:52 PM 27.0 °F 23.0 °F 19.9 °F 75% 30.15 in 10.0 mi WSW 3.5 mph - N/A   Clear
9:52 PM 23.0 °F 18.4 °F 18.0 °F 81% 30.17 in 10.0 mi WNW 3.5 mph - N/A   Clear
10:52 PM 23.0 °F - 17.1 °F 78% 30.18 in 10.0 mi Calm Calm - N/A   Clear
11:52 PM 21.0 °F 16.2 °F 17.1 °F 85% 30.18 in 10.0 mi WSW 3.5 mph - N/A   Mostly Cloudy